Tracking 29933 objects as of 2-Dec-2024
HD Live streaming from Space Station
objects crossing your sky now

STARLINK-31483

Track STARLINK-31483 now!
10-day predictions
STARLINK-31483 is classified as:


NORAD ID: 59411
Int'l Code: 2024-064P
Perigee: 449.7 km
Apogee: 452.6 km
Inclination: 43.0 °
Period: 93.5 minutes
Semi major axis: 6822 km
RCS: Unknown
Launch date: April 5, 2024
Source: United States (US)
Launch site: AIR FORCE EASTERN TEST RANGE (AFETR)
Your satellite tracking list
Your tracking list is empty




NASA's NSSDC Master Catalog

Two Line Element Set (TLE):
1 59411U 24064P   24337.20468594  .00002903  00000-0  76721-4 0  9994
2 59411  43.0008 155.9227 0002154 266.6457  93.4153 15.40706997 38404
Source of the keplerian elements: AFSPC